SCATSAT 1

Last updated on Sun Jun 21 2026 00:02:52 GMT+0000 (Coordinated Universal Time)

1 41790U 16059H 26171.45951691 .00000807 00000+0 11295-3 0 9994 2 41790 98.1189 235.2594 0053498 236.6981 122.9100 14.79531207102077
UTC large
Height (km)
Speed (km/s)
/
Latitude / Longitude
Inclination (degrees)
Orbital Period (minutes)
Azimuth
Elevation
Range (km)
Doppler Factor

Next 0 passes for location: London (51.5072 / 0.1276)

No passes found over London.
SCATSAT 1